Wind_Speed
49 49 54 59 63 71 80 83 85 86 87 85 84 83 82 79 79 78 78 77 76 75 73 72 71 69 68 69 68 69 71 71 72 72 73 74 75 76 76 76 75 76 78
32 39 39 42 45 50 57 67 79 85 87 88 88 87 85 83 82 82 80 80 80 78 78 77 75 73 73 74 74 75 75 75 74 75 77 77 78 76 76 77 78 77 79
33 22 17 37 44 40 45 54 63 73 81 89 90 90 89 87 85 85 84 82 82 82 82 80 80 78 77 78 78 77 78 77 77 79 78 77 77 77 76 77 79 80 82
38 31 18 38 43 39 45 51 59 64 72 81 86 90 90 88 87 88 86 85 85 84 84 84 83 82 81 80 79 80 80 80 79 80 78 77 77 76 78 77 79 81 78
41 48 45 32 35 34 29 42 53 60 59 67 79 84 88 88 86 86 88 87 87 86 85 85 84 84 84 83 81 80 80 80 79 78 78 77 76 75 75 77 77 72 74
58 54 47 46 25 15 35 35 36 38 44 49 65 69 82 84 83 87 86 85 87 87 86 88 85 84 84 82 81 79 79 78 76 73 75 72 73 71 72 72 70 68 60
58 55 47 31 14 17 17 46 44 43 37 39 48 61 63 71 80 79 81 83 83 83 84 85 86 84 84 80 79 77 75 73 73 70 69 67 68 69 68 65 62 54 54
62 51 48 41 28 22 30 41 49 45 38 36 35 48 51 57 65 76 80 78 76 76 76 75 77 73 79 78 75 75 71 64 64 62 62 63 66 65 60 57 53 52 57
44 65 41 47 38 33 50 53 57 53 42 34 31 36 40 45 51 61 70 70 68 66 70 67 71 66 64 62 57 55 58 57 54 56 60 59 55 56 56 53 58 58 57
47 56 70 43 50 41 42 39 57 43 34 44 32 30 35 41 46 44 45 51 51 52 53 56 51 55 47 46 49 47 50 54 59 59 56 59 59 63 57 55 58 60 62
46 50 65 56 61 51 60 63 58 32 25 20 21 25 29 24 28 39 26 32 38 41 39 39 41 39 40 39 42 47 55 55 59 59 60 61 60 63 61 60 61 64 69
44 61 59 60 65 68 66 60 46 34 31 23 25 25 28 28 19 24 23 29 35 34 35 37 38 39 39 42 48 52 57 57 59 63 65 65 67 66 67 70 74 70 76
49 62 62 66 67 65 64 58 51 39 31 28 28 32 32 28 28 22 29 33 39 42 43 40 39 41 44 49 53 53 56 59 60 61 64 66 68 72 75 77 76 80 78
53 68 70 66 74 69 56 52 50 41 40 34 42 38 33 33 31 31 32 38 41 49 41 40 41 42 47 51 53 58 59 61 62 59 63 67 71 73 76 76 78 78 74
58 64 78 72 67 62 54 49 48 50 48 50 43 44 37 36 42 41 43 44 46 46 42 45 45 49 47 48 55 60 65 62 59 64 70 73 76 80 81 80 79 77 72
52 62 85 71 65 62 62 52 53 51 55 53 50 46 42 41 49 48 43 42 44 45 49 48 46 46 53 58 61 62 60 60 69 72 75 81 82 84 83 76 73 72 67
45 56 64 81 69 64 64 58 58 53 55 51 51 46 47 46 50 48 47 49 49 49 52 47 54 58 60 58 58 62 66 66 68 72 78 83 86 81 80 75 68 63 65
38 51 53 57 59 61 58 62 64 61 58 51 47 45 48 45 49 47 49 52 55 54 57 52 57 62 60 62 64 71 66 70 74 80 82 80 82 78 73 70 68 66 65
47 50 53 53 56 62 62 66 60 57 58 56 47 47 49 46 51 50 53 51 54 57 55 54 57 59 64 64 65 67 70 75 81 85 83 84 73 71 66 69 67 67 66
40 41 48 53 55 56 59 58 56 56 54 58 58 52 48 48 54 50 51 53 51 50 54 58 60 65 68 72 75 75 76 78 81 78 78 77 72 70 67 66 69 69 71
36 42 45 49 53 55 58 57 48 56 55 52 52 56 57 58 58 59 59 58 57 59 60 63 68 70 69 71 75 76 78 80 81 76 68 69 69 70 70 72 73 75 78
27 41 45 45 52 53 53 59 59 48 50 53 55 52 53 58 60 64 60 60 62 66 67 66 66 77 82 79 81 80 76 74 74 72 68 65 67 70 74 76 81 85 87
16 24 31 35 38 49 45 39 42 44 40 41 44 49 59 58 55 60 64 66 69 71 71 72 79 79 74 73 73 72 72 74 74 74 70 70 71 74 79 82 85 88 93
23 19 22 30 29 33 33 36 38 40 42 44 46 49 52 53 52 52 59 61 62 66 67 69 70 71 72 73 71 74 78 80 76 70 73 77 81 82 85 88 91 94 98
32 29 28 29 27 30 34 38 41 45 47 52 51 55 56 58 60 63 64 65 65 63 67 74 72 73 74 79 75 80 79 77 76 76 79 83 87 88 92 95 98 98 101
29 33 31 30 34 38 39 41 49 51 56 56 55 55 55 58 61 65 64 60 61 74 79 77 77 79 81 79 79 79 83 81 78 79 86 87 91 97 101 103 106 107 107
Wind_Direction
248 249 253 256 259 256 252 249 251 253 253 252 252 253 255 256 257 258 259 260 262 263 265 266 269 270 271 272 274 276 277 279 281 284 287 287 289 292 291 291 291 290 291
231 238 248 255 256 255 255 252 251 253 255 254 253 252 253 255 258 258 259 260 262 264 265 267 268 269 271 271 274 276 278 281 284 286 287 290 289 290 289 291 291 292 292
208 197 231 264 255 259 262 259 254 251 251 254 254 253 252 253 257 257 258 259 261 263 265 267 268 269 271 273 274 277 278 282 285 287 289 289 289 289 291 291 292 293 292
200 165 152 249 266 267 260 264 256 252 253 249 252 252 253 253 255 257 259 260 260 262 264 266 268 270 272 275 276 277 280 282 286 289 290 290 291 291 291 290 290 289 288
175 174 169 210 252 269 273 264 260 259 256 253 249 249 251 253 255 258 259 261 262 263 265 266 269 271 273 276 279 280 282 284 286 288 291 291 290 291 290 290 289 288 292
190 172 182 184 218 309 305 280 271 260 256 259 254 252 251 251 255 257 258 261 262 263 266 267 268 272 274 277 281 281 282 285 288 288 288 290 289 290 288 289 290 293 293
192 184 186 185 180 110 275 272 272 270 273 285 262 255 255 254 254 257 260 261 264 265 267 269 271 274 277 278 280 282 283 285 287 287 287 289 289 289 290 290 293 296 295
199 190 196 184 178 170 224 251 269 273 281 282 270 261 262 263 259 257 258 261 265 266 267 269 272 275 276 279 280 282 284 286 286 286 287 288 290 293 297 297 294 295 292
219 212 186 202 189 180 192 236 253 252 271 275 273 264 267 265 260 258 259 263 264 264 266 273 273 278 279 281 281 283 285 285 287 288 288 291 298 304 301 296 293 296 298
225 216 220 188 188 191 181 230 236 253 265 276 269 272 266 264 264 265 263 261 264 263 268 271 276 275 279 281 283 285 283 288 291 291 292 299 303 306 305 300 302 303 303
215 209 222 216 216 209 217 225 232 251 261 259 262 258 256 252 253 260 251 258 258 260 267 267 272 282 286 288 292 293 293 294 295 297 301 304 307 308 307 305 304 300 296
211 201 211 201 202 201 208 222 232 235 239 237 226 246 247 242 256 247 267 261 266 267 280 280 289 285 289 291 289 292 294 293 296 299 305 304 304 308 305 302 301 299 300
217 215 202 202 201 210 215 222 223 226 236 245 231 234 234 229 231 222 244 253 277 272 271 279 284 289 289 289 292 291 292 294 301 303 304 304 303 304 302 303 302 303 302
213 212 207 216 216 224 223 222 234 226 236 242 238 238 237 237 237 246 236 241 245 256 265 275 281 281 282 286 288 292 294 300 300 298 298 299 299 302 304 303 305 303 300
217 214 208 214 217 222 224 227 233 237 236 239 234 234 238 243 241 242 244 245 255 264 272 283 282 281 284 285 286 289 295 294 293 293 296 295 300 301 303 303 303 301 299
212 210 207 213 214 222 229 225 231 230 229 233 237 238 236 244 245 248 249 253 258 270 276 280 278 279 279 286 290 288 288 287 291 293 293 301 300 301 304 302 301 298 295
206 202 210 219 223 226 230 226 227 232 231 235 236 242 241 246 246 250 250 254 262 271 277 275 275 281 283 284 281 285 287 290 292 298 298 301 302 303 302 302 297 296 297
203 197 202 205 213 227 226 226 232 236 233 236 240 241 243 247 246 251 256 262 266 270 276 283 280 279 280 279 284 286 288 292 294 297 299 302 301 301 299 297 296 297 300
205 201 205 211 220 223 224 227 234 239 238 240 242 241 248 249 249 262 264 269 268 271 273 277 276 275 278 281 284 286 292 297 298 298 300 299 299 296 294 293 296 300 300
207 207 211 217 222 224 228 229 234 237 237 239 243 248 251 254 255 264 265 265 268 270 268 276 275 273 275 281 287 291 293 297 297 300 299 300 298 296 295 298 301 303 305
213 214 219 222 227 229 230 232 239 240 241 247 250 251 255 258 257 265 264 271 269 262 265 270 275 276 279 285 287 292 294 299 299 299 299 298 299 301 301 306 306 307 308
224 220 225 230 232 233 239 240 237 241 244 248 248 253 254 256 261 265 269 267 267 271 270 269 276 283 286 288 290 292 294 298 298 297 295 295 298 301 305 309 310 309 308
228 226 231 236 237 233 239 246 247 249 253 253 254 255 258 261 262 265 266 265 270 268 269 272 278 282 285 288 291 295 296 298 296 294 295 299 301 304 307 308 306 306 305
241 228 239 240 234 235 244 248 251 247 246 250 250 256 251 253 262 265 267 269 273 278 278 278 282 287 289 290 293 297 297 296 297 299 302 302 306 305 303 304 303 302 303
232 228 236 238 238 237 236 240 243 238 243 244 246 248 256 264 264 269 271 277 281 281 281 282 284 285 287 288 292 296 299 301 300 301 305 303 301 299 299 302 302 302 302
240 243 246 241 246 242 246 251 247 249 246 249 260 267 267 268 269 269 275 280 286 281 281 286 291 291 291 290 292 295 298 300 301 298 297 297 297 298 301 302 303 302 303
Height
10771 10781 10786 10789 10789 10792 10799 10811 10815 10819 10823 10827 10831 10833 10837 10840 10841 10842 10843 10845 10847 10849 10851 10851 10853 10856 10856 10855 10855 10854 10853 10853 10852 10851 10849 10847 10845 10843 10840 10837 10834 10831 10827
10766 10773 10776 10777 10780 10783 10788 10795 10802 10807 10810 10816 10820 10821 10825 10829 10832 10832 10834 10835 10837 10839 10840 10841 10843 10845 10845 10845 10845 10844 10843 10843 10844 10841 10838 10836 10834 10831 10829 10825 10822 10818 10814
10759 10769 10772 10772 10775 10777 10781 10784 10787 10790 10795 10802 10804 10808 10812 10816 10820 10821 10823 10824 10826 10828 10830 10832 10832 10833 10834 10835 10835 10834 10833 10835 10833 10831 10829 10827 10823 10820 10817 10813 10809 10805 10801
10749 10745 10761 10767 10765 10767 10768 10771 10775 10778 10781 10783 10788 10794 10798 10803 10807 10809 10812 10813 10815 10817 10819 10821 10821 10822 10823 10825 10825 10823 10823 10823 10822 10820 10817 10814 10811 10807 10804 10802 10798 10794 10790
10739 10738 10755 10760 10761 10764 10762 10761 10763 10764 10766 10769 10773 10778 10783 10789 10796 10798 10800 10802 10805 10806 10808 10809 10810 10812 10812 10813 10813 10812 10813 10810 10809 10809 10805 10802 10799 10795 10792 10788 10784 10780 10777
10731 10736 10741 10745 10758 10756 10751 10751 10751 10755 10759 10757 10762 10765 10771 10777 10784 10786 10788 10791 10792 10794 10797 10797 10798 10799 10800 10802 10802 10801 10802 10801 10798 10796 10793 10789 10787 10784 10779 10774 10771 10768 10766
10729 10739 10739 10746 10755 10761 10738 10738 10741 10749 10752 10750 10751 10755 10760 10765 10770 10775 10778 10781 10783 10783 10785 10787 10788 10790 10790 10792 10792 10789 10791 10790 10788 10783 10781 10778 10775 10770 10767 10764 10761 10757 10755
10727 10736 10742 10741 10743 10750 10764 10740 10733 10746 10748 10746 10746 10748 10752 10757 10760 10763 10768 10770 10772 10773 10774 10775 10778 10778 10781 10782 10782 10777 10778 10778 10774 10773 10770 10767 10764 10760 10757 10754 10751 10748 10744
10719 10726 10733 10737 10739 10739 10749 10737 10732 10744 10741 10742 10743 10743 10746 10750 10750 10753 10755 10760 10762 10762 10764 10765 10768 10770 10770 10771 10769 10769 10760 10768 10764 10761 10758 10756 10754 10750 10747 10743 10738 10734 10730
10708 10712 10727 10734 10730 10729 10733 10726 10733 10736 10735 10736 10735 10737 10739 10740 10743 10746 10747 10751 10752 10752 10754 10757 10759 10759 10760 10761 10761 10761 10753 10754 10750 10749 10748 10744 10742 10738 10735 10731 10726 10721 10718
10700 10707 10716 10720 10729 10732 10727 10724 10724 10728 10730 10727 10730 10733 10734 10734 10736 10739 10739 10741 10742 10744 10747 10749 10751 10750 10751 10752 10751 10749 10743 10746 10740 10738 10736 10734 10730 10727 10722 10718 10714 10710 10707
10688 10696 10703 10707 10709 10708 10712 10716 10718 10721 10721 10720 10724 10728 10727 10728 10731 10731 10734 10735 10735 10737 10738 10741 10743 10743 10743 10742 10741 10739 10734 10735 10732 10730 10726 10722 10718 10714 10710 10707 10702 10697 10692
10679 10685 10689 10693 10697 10696 10702 10707 10711 10714 10715 10714 10719 10720 10719 10722 10724 10724 10728 10729 10731 10730 10731 10734 10735 10733 10733 10733 10731 10729 10725 10724 10724 10718 10714 10710 10704 10700 10696 10691 10686 10679 10673
10666 10673 10675 10681 10687 10691 10697 10701 10706 10709 10708 10709 10714 10714 10717 10718 10719 10719 10719 10720 10719 10719 10724 10726 10726 10726 10725 10723 10721 10719 10717 10711 10712 10706 10703 10699 10694 10689 10682 10677 10671 10666 10660
10653 10658 10667 10673 10679 10685 10691 10695 10698 10700 10702 10703 10708 10707 10712 10712 10713 10712 10712 10713 10714 10715 10718 10718 10718 10717 10715 10712 10711 10710 10708 10704 10698 10695 10691 10686 10682 10676 10669 10664 10656 10650 10644
10647 10651 10662 10666 10674 10679 10686 10692 10692 10694 10695 10699 10703 10705 10707 10706 10706 10706 10706 10706 10708 10709 10710 10710 10709 10708 10705 10703 10701 10699 10696 10694 10686 10682 10678 10674 10668 10662 10656 10650 10644 10635 10629
10639 10645 10654 10665 10671 10674 10679 10685 10688 10689 10690 10693 10695 10698 10699 10700 10701 10701 10701 10701 10701 10701 10701 10701 10699 10698 10695 10693 10689 10688 10684 10680 10678 10673 10664 10659 10652 10644 10638 10633 10629 10623 10618
10638 10642 10649 10657 10664 10668 10676 10678 10680 10683 10686 10687 10690 10693 10692 10694 10694 10695 10694 10694 10694 10693 10692 10691 10689 10687 10684 10682 10680 10675 10672 10667 10664 10659 10655 10649 10641 10631 10623 10617 10613 10607 10603
10634 10642 10647 10653 10660 10665 10668 10671 10673 10676 10680 10682 10683 10685 10687 10688 10688 10687 10687 10687 10686 10684 10683 10681 10679 10677 10675 10671 10666 10661 10658 10653 10647 10642 10635 10632 10628 10622 10612 10603 10598 10593 10586
10635 10640 10645 10651 10654 10658 10661 10665 10667 10671 10674 10676 10676 10679 10680 10682 10681 10680 10679 10679 10676 10674 10672 10670 10669 10664 10660 10659 10655 10647 10643 10639 10633 10628 10622 10613 10606 10604 10598 10590 10583 10575 10567
10632 10638 10642 10646 10649 10651 10656 10659 10662 10665 10668 10670 10672 10673 10674 10674 10673 10671 10671 10669 10666 10664 10661 10660 10656 10655 10648 10643 10643 10637 10631 10622 10616 10612 10607 10600 10592 10582 10575 10572 10564 10558 10552
10629 10632 10635 10638 10642 10647 10650 10653 10657 10660 10660 10660 10660 10661 10661 10663 10662 10660 10659 10656 10655 10653 10651 10647 10643 10638 10636 10629 10626 10623 10620 10614 10606 10599 10594 10589 10580 10571 10563 10556 10544 10535 10530
10626 10629 10633 10636 10639 10643 10646 10648 10649 10651 10650 10650 10651 10653 10653 10652 10650 10649 10648 10646 10643 10638 10636 10634 10631 10628 10623 10615 10611 10608 10605 10599 10592 10585 10580 10572 10565 10557 10547 10543 10536 10527 10515
10624 10627 10631 10633 10636 10638 10641 10642 10642 10642 10643 10644 10644 10644 10644 10641 10637 10634 10631 10629 10627 10622 10621 10618 10616 10613 10607 10603 10596 10590 10588 10583 10576 10570 10562 10553 10546 10540 10534 10529 10520 10512 10499
10622 10624 10629 10631 10633 10635 10636 10634 10632 10633 10633 10634 10636 10637 10634 10629 10627 10622 10622 10619 10610 10606 10605 10605 10604 10598 10594 10588 10585 10577 10569 10565 10558 10553 10546 10537 10529 10522 10516 10510 10502 10494 10484
10617 10620 10624 10627 10629 10631 10630 10627 10625 10627 10627 10626 10625 10625 10625 10620 10617 10613 10611 10606 10598 10590 10593 10589 10585 10580 10576 10572 10570 10563 10553 10548 10542 10536 10533 10526 10513 10497 10490 10484 10478 10471 10463